Back to catalog

SATCOM C4

AliveCommunicationsGEO
NORAD 22096·PAYLOAD·🇺🇸 United States

Launched Aug 31, 1992 from Cape Canaveral Space Force Station

Loading…

TLE

FreshSource: Space-Track

Epoch: Sep 14, 2026, 00:09 UTC

1 22096U 92057A   26257.00637543 -.00000038  00000-0  00000-0 0  9994
2 22096  13.8354  15.5455 0002818 239.3578 130.8017  0.99017910125796

Track SATCOM C4 in real time with AllMySat

Download on the App Store